Retour au catalogue

STARLINK-3389

ActifCommunicationsVLEO
NORAD 51124·PAYLOAD·🇺🇸 United States

Lancé Jan 19, 2022 depuis Cape Canaveral Space Force Station

Loading…

Prochains Passages (prochaines 24 heures)

TLE

FraisSource: CelesTrak SupGP

Époque: Sep 15, 2026, 01:47 UTC

1 51124C 22005W   26258.07479167 -.00075469  00000+0 -22264-2 0  2584
2 51124  53.1586 162.9575 0001248  87.3624 143.3512 15.34474878    14

Suivez STARLINK-3389 en temps réel avec AllMySat

Download on the App Store